Location: Düngen
(52.0952°N, 10.0219°E)
Time: 14:49:30
(UTC+00:00)

USA 234 - Pass Details

Date: 11 March 2026
Orbit: 1102 x 1106 km, 123.0° (Epoch: 4 January)

Event Time Altitude Azimuth Distance (km) Brightness Sun altitude
Exits shadow 19:16:13 29° 100° (E) 1,893 3.9 -18.8°
Maximum altitude 19:19:48 76° 21° (NNE) 1,140 3.3 -19.3°
Drops below altitude 10° 19:26:21 10° 297° (WNW) 2,971 6.7 -20.3°
Sets 19:28:51 0° 296° (WNW) 3,931 7.8 -20.6°
